OBJECT C, 61240

Orbit data source: Space-Track

You're viewing an Uncataloged Satellite

Recently launched and/or uncataloged satellites may have evolving metadata. Metadata may include but not limited to: Owner, Maufacturer, Bus, Motor, and Mission.

OBJECT C, 61240 is a satellite owned by Changguang WJ (CN) in SSO that was launched on Tue, 24 Sep 2024 UTC via a LIJIAN-1 launch vehicle from the Jiuquan Satellite Launch Center, China (JSC). Unknown objects in Earth's orbit typically refer to objects detected orbiting the Earth but have not yet been identified or cataloged. These objects could be anything from previously untracked satellites, spent rocket stages, debris from satellite collisions, or even natural meteoroids temporarily captured by Earth's gravity.

Loading next visibility...
OBJECT C details
Identifier
61240, 2024-174C
Orbit
SSO
Last TLE update10 hours ago
Origin
Flag of CNChangguang WJ (CN / PRC)
ManufacturerChangguang WJ
MissionOperational spacecraft
Bus & MotorJL-1, Unknown motor
Mass~250 kg wet, ~250 kg dry
Launch date (UTC)
2024-09-24 (3 months ago)
Launch vehicle
LIJIAN-1
Launch site
Jiuquan Satellite Launch Center, China (JSC)
Object typeUnknown
Shape & HBRUnknown
Radar Cross SectionLarge (>1 m²)

Expand to show TLE details & history

TLE from 10 hours ago
0 OBJECT C
1 61240U 24174C   24356.16105442  .00007790  00000-0  38486-3 0  9999
2 61240  97.4496 359.9538 0014471 345.3630  14.7183 15.18043328 13189
Epoch: 2024-12-21T03:51Z
Definitive object data (Epoch: 2024-12-21T03:51:55.101Z)
Latitude-0.00004°
Longitude-148.24197°
Altitude505.197 km
Speed7.617 km/s
True Right ascension23h 59m 48s
True Declination0° 00' 00"
Sunlit
Object was in daylight at TLE epoch
Visualization TLE readout
Latitude11.80026°
Longitude-149.40726°
Altitude505.247 km
Speed7.617 km/s
Apparent Right ascension00h 08m 20s
Apparent Declination-12° 57' 31"
Sunlit
Object is in daylight
Visualization observer readout
Local Sidereal Time12:26:30
Azimuth9.696° NNE
Elevation-62.748°
Doppler factor1
Orbital elements
Apogee altitude518.691 km
Perigee altitude498.759 km
Semi-major axis6,886.862 km
Eccentricity0.0014471
Inclination97.4496°
RAAN359.9538°
Arg. of periapsis345.363°
True anomaly14.7605°
Mean anomaly14.7183°
Eccentric anomaly14.73939°
Mean motion3.79762 °/min
BSTAR0.00038486
Orbital period94.8 mins
Loading maneuver chart data...
Loading historical data...
Loading historical data...
Loading historical data...
Loading historical data...
Loading historical data...
Loading historical data...
Loading historical data...

OBJECT C Visibility forecast

Observer location: undefined°, undefined

Span
Click to sort rows by Start time (UTC) header in descending order
Start Az.
Max El. time (UTC)
Max El. Az.
Max El.
End time (UTC)
End Az.
6 mins2024-12-21 13:54:32.538Z351.086° N2024-12-21 13:57:32.538Z296.162° NW28.152°2024-12-21 14:00:32.538Z228.487° WSW
5 mins2024-12-22 00:34:32.538Z170.577° S2024-12-22 00:36:32.538Z308.801° NW44.695°2024-12-22 00:39:32.538Z346.48° N
|